| time (UTC) | temp F | wind direction | speed knots | gust knots | rain 1hr in | rain 24hr in | rain mn in | humidity % | barometer mb |
| 20260509222533 | 52 | 188 | 2.6 | 11.3 | 0.00 | 0.00 | 0.00 | 54 | 1019.8 |
| 20260509221507 | 53 | 265 | 2.6 | 11.3 | 0.00 | 0.00 | 0.00 | 53 | 1019.8 |
| 20260509220443 | 53 | 217 | 2.6 | 9.6 | 0.00 | 0.00 | 0.00 | 51 | 1019.7 |
| 20260509215411 | 55 | 266 | 2.6 | 7.8 | 0.00 | 0.00 | 0.00 | 50 | 1019.7 |
| 20260509214425 | 56 | 246 | 2.6 | 8.7 | 0.00 | 0.00 | 0.00 | 50 | 1019.5 |
| 20260509213413 | 56 | 192 | 2.6 | 9.6 | 0.00 | 0.00 | 0.00 | 49 | 1019.5 |
| 20260509212426 | 56 | 205 | 3.5 | 9.6 | 0.00 | 0.00 | 0.00 | 47 | 1019.2 |
| 20260509211449 | 57 | 180 | 3.5 | 9.6 | 0.00 | 0.00 | 0.00 | 50 | 1019.1 |
| 20260509210514 | 57 | 173 | 2.6 | 12.2 | 0.00 | 0.00 | 0.00 | 47 | 1019.1 |
| 20260509204303 | 59 | 222 | 4.3 | 11.3 | 0.00 | 0.00 | 0.00 | 41 | 1018.8 |
| 20260509202119 | 60 | 167 | 3.5 | 11.3 | 0.00 | 0.00 | 0.00 | 42 | 1018.6 |
| 20260509201135 | 60 | 190 | 4.3 | 13.9 | 0.00 | 0.00 | 0.00 | 40 | 1018.6 |
| 20260509200157 | 60 | 119 | 3.5 | 13.9 | 0.00 | 0.00 | 0.00 | 39 | 1018.5 |
| 20260509195205 | 61 | 195 | 3.5 | 13.0 | 0.00 | 0.00 | 0.00 | 41 | 1018.4 |
| 20260509194141 | 61 | 223 | 4.3 | 13.0 | 0.00 | 0.00 | 0.00 | 40 | 1018.2 |
| 20260509193203 | 61 | 197 | 3.5 | 11.3 | 0.00 | 0.00 | 0.00 | 42 | 1018.0 |
| 20260509192147 | 61 | 177 | 5.2 | 13.9 | 0.00 | 0.00 | 0.00 | 42 | 1018.0 |
| 20260509191137 | 61 | 227 | 4.3 | 13.9 | 0.00 | 0.00 | 0.00 | 43 | 1018.1 |
| 20260509190110 | 60 | 335 | 4.3 | 12.2 | 0.00 | 0.00 | 0.00 | 41 | 1018.0 |
| 20260509185107 | 61 | 194 | 2.6 | 10.4 | 0.00 | 0.00 | 0.00 | 41 | 1018.0 |
| 20260509182910 | 60 | 159 | 5.2 | 11.3 | 0.00 | 0.00 | 0.00 | 47 | 1017.8 |
| 20260509180722 | 59 | 184 | 5.2 | 13.9 | 0.00 | 0.00 | 0.00 | 51 | 1017.8 |
| 20260509175738 | 59 | 246 | 5.2 | 17.4 | 0.00 | 0.00 | 0.00 | 50 | 1017.7 |
| 20260509174750 | 61 | 161 | 4.3 | 17.4 | 0.00 | 0.00 | 0.00 | 50 | 1017.7 |
| 20260509173734 | 61 | 215 | 4.3 | 13.0 | 0.00 | 0.00 | 0.00 | 45 | 1017.5 |
| 20260508230243 | 55 | 11 | 0.0 | 7.0 | 0.00 | 0.00 | 0.00 | 52 | 1005.0 |
| 20260508225308 | 55 | 11 | 1.7 | 9.6 | 0.00 | 0.00 | 0.00 | 50 | 1004.8 |
| 20260508224310 | 56 | 281 | 2.6 | 10.4 | 0.00 | 0.00 | 0.00 | 50 | 1004.6 |